User: anonymous   Login
Location: Unspecified
(0.0000°N, 0.0000°E)
Time: 19:56:15
(UTC+00:00)
Language:

DNEPR OBJECT V - Orbit

View from above orbital plane
View from above orbital plane
View from above satellite
View from above satellite

Ground track
Ground track

The orbit data is extracted from the following two-line orbital elements,

1 39435U 13066V   14089.31707309 +.00000051 +00000-0 +12440-4 0  9993
2 39435 097.7963 164.0720 0031925 149.4208 211.3547 14.84238719019106
Epoch (UTC): 30 March 2014 07:36:35
Eccentricity: 0.0031925
inclination: 97.7963°
perigee height: 593 km
apogee height: 638 km
right ascension of ascending node: 164.0720°
argument of perigee: 149.4208°
revolutions per day: 14.84238719
mean anomaly at epoch: 211.3547°
orbit number at epoch: 1910

The dashed part of the orbit path shows where the satellite is in the earth's shadow,  

DLR